OBJECT C, 60237

Orbit data source: Space-Track

You're viewing an Uncataloged Satellite

Recently launched and/or uncataloged satellites may have evolving metadata. Metadata may include but not limited to: Owner, Maufacturer, Bus, Motor, and Mission.

OBJECT C, 60237 is a satellite in LEO that was launched on Tue, 09 Jul 2024 UTC via an ARIANE 62 launch vehicle from the French Guiana (FRGUI). Unknown objects in Earth's orbit typically refer to objects detected orbiting the Earth but have not yet been identified or cataloged. These objects could be anything from previously untracked satellites, spent rocket stages, debris from satellite collisions, or even natural meteoroids temporarily captured by Earth's gravity.

Loading next visibility...
Identifier
60237, 2024-128C
Orbit
LEO
Last TLE update
13 hours ago
Origin
Flag of TBDTechnical University of Kosice (TBD)
Manufacturer
TUKE/KONK
Mission
Operational Amateur Astronomy
Bus & Motor
CUBESAT 2U, Unknown motor
Mass
2 kg wet, 2 kg dry
Launch date (UTC)
2024-07-09 (1 year ago)
Launch vehicle
ARIANE 62
Launch site
French Guiana (FRGUI)
Object type
Unknown
Shape & HBR
Box, 0.2 m
Radar Cross Section
0.025 m², Small (<0.1 m²)

Expand to show TLE details & history

TLE from 13 hours ago
0 OBJECT C
1 60237U 24128C   25181.82960713  .00002837  00000-0  22035-3 0  9993
2 60237  61.9923   5.4578 0053488  62.2886 298.3616 15.02787360 53393
Epoch: 2025-06-30T19:54Z
TLE epoch observation values (Epoch: 2025-06-30T19:54:38.056Z)
Latitude
-0.00006°
Longitude
147.66541°
Altitude
542.605 km
Speed
7.601 km/s
True Right ascension
00h 21m 49s
True Declination
0° 00' 00"
Sunlit
Object was in daylight at epoch
Visualization orbit readout
Latitude
34.11254°
Longitude
166.78034°
Altitude
527.45 km
Speed
7.622 km/s
Apparent Right ascension
04h 41m 45s
Apparent Declination
-1° 52' 43"
Sunlit
Object is in daylight
Visualization observer readout
Local Sidereal Time
20:29:42
Azimuth
68.846° E
Elevation
-26.022°
Doppler factor
1
Orbital elements
Apogee altitude
594.332 km
Perigee altitude
520.14 km
Semi-major axis
6,935.373 km
Eccentricity
0.00535
Inclination
61.9923°
RAAN
5.4578°
Arg. of periapsis
62.2886°
True anomaly
Unknown
Mean anomaly
298.3616°
Eccentric anomaly
Unknown
Mean motion
3.75784 °/min
Orbital period
95.8 mins
BSTAR
0.00022035
Loading maneuver chart data...
Loading SW <> Apogee altitude chart data...
Loading historical data...
Loading historical data...
Loading historical data...
Loading historical data...
Loading historical data...
Loading historical data...
Loading historical data...

OBJECT C Visibility forecast

Observer location: undefined°, undefined°

Span
Click to sort rows by Start time (UTC) header in descending order
Start Az.
Max El. time (UTC)
Max El. Az.
Max El.
End time (UTC)
End Az.
6 mins2025-07-01 13:36:30.762Z183.157° SSW2025-07-01 13:39:30.762Z130.764° SE28.753°2025-07-01 13:42:30.762Z60.721° ENE
4 mins2025-07-01 15:17:30.762Z288.586° WNW2025-07-01 15:18:30.762Z310.673° NW21.195°2025-07-01 15:21:30.762Z6.487° NNE
5 mins2025-07-01 21:59:30.762Z354.083° N2025-07-01 22:01:30.762Z44.516° NE30.738°2025-07-01 22:04:30.762Z110.452° ESE
4 mins2025-07-01 23:38:30.762Z277.248° WNW2025-07-01 23:40:30.762Z238.256° WSW19.599°2025-07-01 23:42:30.762Z203.515° SW
|